Location: Chèvreville
(49.1099°N, 2.8495°E)
Time: 08:25:02
(UTC+00:00)

VELOX 1 - Pass Details

Date: 14 December 2023
Orbit: 608 x 622 km, 98.4° (Epoch: 24 February)

Event Time Altitude Azimuth Distance (km) Brightness Sun altitude
Rises 04:32:13 0° 107° (ESE) 2,867 ? -28.7°
Reaches altitude 10° 04:35:46 10° 75° (ENE) 1,971 ? -28.1°
Maximum altitude 04:37:16 12° 55° (NE) 1,864 ? -27.9°
Drops below altitude 10° 04:38:45 10° 34° (NE) 1,978 ? -27.7°
Enters shadow 04:41:35 - 7° (N) 2,654 ? -27.2°
